Вернуться в каталог

STARLINK-32388

АктивенСвязьVLEO
NORAD 62144·PAYLOAD·🇺🇸 United States

Запущен Nov 30, 2024 с Cape Canaveral Space Force Station

Loading…

Ближайшие Пролёты (ближайшие 24 часа)

TLE

СвежийSource: CelesTrak SupGP

Эпоха: Sep 15, 2026, 02:23 UTC

1 62144C 24224F   26258.09979167 -.00038864  00000+0 -14079-2 0  2583
2 62144  43.0005 175.8982 0001508 277.2443 359.8938 15.27592533    12

Отслеживайте STARLINK-32388 в реальном времени с AllMySat

Download on the App Store